PGT3234 LTBJ-LTFJ

Flight info

Callsign PGT3234
Flight time 0h 40m
Altitude 30000
Route BERGO UG80 DUGLA UY371 VUTZO
Aircraft A21N/M-SDE3FGHIRWY/LB1

Departure

Time 2026-04-29 20:27
Airport Adnan Menderes International Airport (LTBJ)

Arrival

Time 2026-04-29 21:07
Airport Istanbul Sabiha Gökçen International Airport (LTFJ)
Time Latitude Longitude Altitude Speed Heading
2026-04-29 20:11 38.29149 27.15101 406 ft 0 kts 256°
2026-04-29 20:14 38.29150 27.15107 406 ft 2 kts 253°
2026-04-29 20:14 38.29155 27.15125 406 ft 2 kts 255°
2026-04-29 20:14 38.29158 27.15144 406 ft 2 kts 256°
2026-04-29 20:15 38.29162 27.15161 406 ft 2 kts 256°
2026-04-29 20:15 38.29170 27.15177 406 ft 2 kts 205°
2026-04-29 20:15 38.29185 27.15179 406 ft 2 kts 161°
2026-04-29 20:15 38.29193 27.15175 406 ft 1 kts 163°
2026-04-29 20:16 38.29194 27.15175 406 ft 0 kts 163°
2026-04-29 20:20 38.29186 27.15178 406 ft 4 kts 163°
2026-04-29 20:20 38.29155 27.15189 406 ft 5 kts 163°
2026-04-29 20:20 38.29116 27.15204 406 ft 7 kts 164°
2026-04-29 20:20 38.29063 27.15219 406 ft 8 kts 169°
2026-04-29 20:21 38.29016 27.15253 406 ft 8 kts 105°
2026-04-29 20:21 38.28973 27.15304 406 ft 9 kts 156°
2026-04-29 20:21 38.28907 27.15321 406 ft 10 kts 169°
2026-04-29 20:21 38.28834 27.15345 406 ft 11 kts 161°
2026-04-29 20:22 38.28754 27.15375 405 ft 12 kts 166°
2026-04-29 20:22 38.28650 27.15408 405 ft 18 kts 165°
2026-04-29 20:22 38.28527 27.15447 404 ft 18 kts 166°
2026-04-29 20:22 38.28394 27.15488 401 ft 20 kts 165°
2026-04-29 20:23 38.28252 27.15531 397 ft 22 kts 166°
2026-04-29 20:23 38.28094 27.15581 390 ft 24 kts 166°
2026-04-29 20:23 38.27925 27.15626 386 ft 25 kts 168°
2026-04-29 20:23 38.27771 27.15673 381 ft 0 kts 154°
2026-04-29 20:24 38.27758 27.15679 381 ft 4 kts 159°
2026-04-29 20:24 38.27723 27.15704 379 ft 4 kts 94°
2026-04-29 20:24 38.27743 27.15750 380 ft 5 kts 59°
2026-04-29 20:24 38.27770 27.15812 379 ft 12 kts 67°
2026-04-29 20:25 38.27813 27.15898 380 ft 11 kts 17°
2026-04-29 20:25 38.27871 27.15879 382 ft 3 kts 355°
2026-04-29 20:25 38.27874 27.15879 382 ft 0 kts 353°
2026-04-29 20:26 38.27873 27.15879 382 ft 0 kts 353°
2026-04-29 20:26 38.27874 27.15879 382 ft 4 kts 353°
2026-04-29 20:26 38.28186 27.15797 391 ft 85 kts 347°
2026-04-29 20:26 38.28998 27.15550 407 ft 151 kts 347°
2026-04-29 20:27 38.30135 27.15198 732 ft 179 kts 347°
2026-04-29 20:27 38.30973 27.14940 1090 ft 193 kts 348°
2026-04-29 20:27 38.32785 27.14446 2148 ft 205 kts 349°
2026-04-29 20:27 38.34150 27.14064 3200 ft 199 kts 349°
2026-04-29 20:28 38.35431 27.13716 4279 ft 187 kts 349°
2026-04-29 20:28 38.36665 27.13385 5146 ft 185 kts 349°
2026-04-29 20:28 38.37970 27.13035 5706 ft 202 kts 349°
2026-04-29 20:28 38.39395 27.12647 6275 ft 219 kts 348°
2026-04-29 20:29 38.40944 27.12193 6851 ft 237 kts 347°
2026-04-29 20:29 38.42603 27.11690 7422 ft 255 kts 347°
2026-04-29 20:29 38.44404 27.11142 8031 ft 271 kts 347°
2026-04-29 20:29 38.46270 27.10575 8856 ft 278 kts 347°
2026-04-29 20:30 38.48168 27.09999 9761 ft 281 kts 347°
2026-04-29 20:30 38.50045 27.09429 10559 ft 286 kts 346°
2026-04-29 20:30 38.52039 27.08824 11068 ft 303 kts 346°
2026-04-29 20:30 38.54164 27.08180 11504 ft 321 kts 346°
2026-04-29 20:31 38.56417 27.07496 11926 ft 338 kts 346°
2026-04-29 20:31 38.58775 27.06798 12601 ft 347 kts 348°
2026-04-29 20:31 38.61172 27.06443 13379 ft 351 kts 356°
2026-04-29 20:31 38.63623 27.06563 14130 ft 357 kts
2026-04-29 20:32 38.66108 27.06980 14879 ft 361 kts
2026-04-29 20:32 38.68610 27.07452 15612 ft 364 kts
2026-04-29 20:32 38.71163 27.07940 16329 ft 368 kts
2026-04-29 20:32 38.73704 27.08420 16841 ft 377 kts
2026-04-29 20:33 38.76347 27.08914 17353 ft 386 kts
2026-04-29 20:33 38.79047 27.09417 18009 ft 390 kts
2026-04-29 20:33 38.81706 27.09911 18664 ft 393 kts
2026-04-29 20:33 38.84420 27.10415 19304 ft 396 kts
2026-04-29 20:34 38.87181 27.10926 19916 ft 400 kts
2026-04-29 20:34 38.89979 27.11443 20513 ft 403 kts
2026-04-29 20:34 38.92715 27.11951 21084 ft 407 kts
2026-04-29 20:34 38.95547 27.12477 21650 ft 410 kts
2026-04-29 20:35 38.98431 27.13013 22193 ft 414 kts
2026-04-29 20:35 39.01276 27.13541 22701 ft 418 kts
2026-04-29 20:35 39.04185 27.14073 23197 ft 422 kts
2026-04-29 20:35 39.07129 27.14608 23706 ft 425 kts
2026-04-29 20:36 39.10070 27.15144 24227 ft 427 kts
2026-04-29 20:36 39.13030 27.15684 24747 ft 429 kts
2026-04-29 20:36 39.15972 27.16220 25230 ft 432 kts
2026-04-29 20:36 39.18966 27.16766 25679 ft 434 kts
2026-04-29 20:37 39.21949 27.17312 26115 ft 437 kts
2026-04-29 20:37 39.24961 27.17865 26535 ft 439 kts
2026-04-29 20:37 39.28014 27.18424 26929 ft 442 kts
2026-04-29 20:37 39.31047 27.18982 27053 ft 443 kts
2026-04-29 20:38 39.34113 27.19545 27059 ft 443 kts
2026-04-29 20:38 39.37196 27.20112 27062 ft 443 kts
2026-04-29 20:38 39.40274 27.20679 27065 ft 442 kts
2026-04-29 20:38 39.43308 27.21238 27067 ft 442 kts
2026-04-29 20:39 39.46418 27.21831 27069 ft 443 kts
2026-04-29 20:39 39.49464 27.22585 27070 ft 444 kts
2026-04-29 20:39 39.52440 27.23531 27072 ft 446 kts 12°
2026-04-29 20:39 39.55490 27.24700 27073 ft 446 kts 14°
2026-04-29 20:40 39.58456 27.25904 27075 ft 446 kts 14°
2026-04-29 20:40 39.61419 27.27120 27077 ft 446 kts 14°
2026-04-29 20:40 39.64424 27.28355 27075 ft 446 kts 14°
2026-04-29 20:40 39.67360 27.29556 27076 ft 446 kts 14°
2026-04-29 20:41 39.70356 27.30781 27074 ft 446 kts 14°
2026-04-29 20:41 39.73390 27.32021 27071 ft 446 kts 14°
2026-04-29 20:41 39.76370 27.33244 27071 ft 446 kts 14°
2026-04-29 20:41 39.79411 27.34492 27071 ft 447 kts 14°
2026-04-29 20:42 39.82390 27.35716 27071 ft 447 kts 13°
2026-04-29 20:42 39.85331 27.36925 27071 ft 447 kts 14°
2026-04-29 20:42 39.88308 27.38150 27073 ft 447 kts 14°
2026-04-29 20:42 39.91250 27.39363 27073 ft 447 kts 13°
2026-04-29 20:43 39.94251 27.40600 27074 ft 447 kts 13°
2026-04-29 20:43 39.97238 27.41831 27074 ft 447 kts 13°
2026-04-29 20:43 40.00054 27.42990 27073 ft 447 kts 13°
2026-04-29 20:43 40.03106 27.44248 27075 ft 447 kts 13°
2026-04-29 20:44 40.06099 27.45483 27077 ft 447 kts 13°
2026-04-29 20:44 40.09079 27.46714 27078 ft 446 kts 13°
2026-04-29 20:44 40.12078 27.47954 27076 ft 446 kts 13°
2026-04-29 20:44 40.15029 27.49176 27079 ft 446 kts 13°
2026-04-29 20:45 40.17984 27.50402 27072 ft 435 kts 13°
2026-04-29 20:45 40.20831 27.51588 26899 ft 422 kts 13°
2026-04-29 20:45 40.23610 27.52743 26300 ft 420 kts 13°
2026-04-29 20:45 40.26440 27.53919 25762 ft 416 kts 13°
2026-04-29 20:46 40.29147 27.55263 25264 ft 415 kts 20°
2026-04-29 20:46 40.31694 27.57017 24788 ft 414 kts 27°
2026-04-29 20:46 40.34092 27.59152 24320 ft 412 kts 32°
2026-04-29 20:46 40.36369 27.61376 23856 ft 409 kts 33°
2026-04-29 20:47 40.38636 27.63625 23392 ft 406 kts 33°
2026-04-29 20:47 40.40887 27.65849 22927 ft 402 kts 33°
2026-04-29 20:47 40.43118 27.68041 22464 ft 399 kts 33°
2026-04-29 20:47 40.45386 27.70069 22001 ft 393 kts 28°
2026-04-29 20:48 40.47784 27.71766 21536 ft 387 kts 21°
2026-04-29 20:48 40.50269 27.73140 21080 ft 382 kts 18°
2026-04-29 20:48 40.52747 27.74382 20632 ft 379 kts 17°
2026-04-29 20:48 40.55201 27.75594 20190 ft 376 kts 17°
2026-04-29 20:49 40.57610 27.76791 19750 ft 374 kts 17°
2026-04-29 20:49 40.60059 27.78017 19371 ft 369 kts 18°
2026-04-29 20:49 40.62414 27.79204 19175 ft 358 kts 18°
2026-04-29 20:49 40.64693 27.80367 19048 ft 347 kts 19°
2026-04-29 20:50 40.66701 27.82066 18845 ft 344 kts 44°
2026-04-29 20:50 40.67900 27.84664 18561 ft 345 kts 71°
2026-04-29 20:50 40.68176 27.87806 18165 ft 345 kts 91°
2026-04-29 20:50 40.68084 27.90920 17789 ft 343 kts 92°
2026-04-29 20:51 40.67997 27.94125 17399 ft 341 kts 91°
2026-04-29 20:51 40.67952 27.97218 17034 ft 339 kts 90°
2026-04-29 20:51 40.67934 28.00323 16654 ft 338 kts 90°
2026-04-29 20:51 40.67926 28.03386 16277 ft 336 kts 89°
2026-04-29 20:52 40.67920 28.06445 15891 ft 333 kts 89°
2026-04-29 20:52 40.67915 28.09498 15526 ft 331 kts 89°
2026-04-29 20:52 40.67908 28.12529 15144 ft 329 kts 89°
2026-04-29 20:52 40.67900 28.15505 14771 ft 327 kts 89°
2026-04-29 20:53 40.67892 28.18489 14408 ft 324 kts 89°
2026-04-29 20:53 40.67883 28.21429 14040 ft 322 kts 89°
2026-04-29 20:53 40.67873 28.24412 13666 ft 320 kts 89°
2026-04-29 20:53 40.67862 28.27307 13296 ft 318 kts 89°
2026-04-29 20:54 40.67830 28.33091 12586 ft 313 kts 90°
2026-04-29 20:54 40.67774 28.35946 12228 ft 311 kts 91°
2026-04-29 20:54 40.67707 28.38796 11875 ft 309 kts 91°
2026-04-29 20:55 40.67641 28.41618 11487 ft 307 kts 90°
2026-04-29 20:55 40.67578 28.44404 11162 ft 305 kts 90°
2026-04-29 20:55 40.67518 28.47135 10804 ft 303 kts 90°
2026-04-29 20:55 40.67457 28.49856 10455 ft 300 kts 90°
2026-04-29 20:56 40.67395 28.52666 10097 ft 298 kts 90°
2026-04-29 20:56 40.67334 28.55368 9775 ft 295 kts 90°
2026-04-29 20:56 40.67275 28.57958 9440 ft 293 kts 90°
2026-04-29 20:56 40.67215 28.60635 9188 ft 286 kts 90°
2026-04-29 20:57 40.67181 28.63196 9090 ft 273 kts 84°
2026-04-29 20:57 40.67480 28.65608 9039 ft 264 kts 72°
2026-04-29 20:57 40.68053 28.67905 8935 ft 267 kts 69°
2026-04-29 20:57 40.68687 28.70220 8588 ft 267 kts 68°
2026-04-29 20:58 40.69317 28.72508 8261 ft 265 kts 68°
2026-04-29 20:58 40.69927 28.74751 7965 ft 263 kts 69°
2026-04-29 20:58 40.70540 28.77024 7648 ft 260 kts 69°
2026-04-29 20:58 40.71138 28.79258 7342 ft 258 kts 69°
2026-04-29 20:59 40.71727 28.81472 7044 ft 255 kts 69°
2026-04-29 20:59 40.72359 28.83641 6747 ft 252 kts 64°
2026-04-29 20:59 40.73146 28.85683 6464 ft 248 kts 61°
2026-04-29 20:59 40.73959 28.87686 6176 ft 245 kts 61°
2026-04-29 21:00 40.74729 28.89631 5891 ft 241 kts 62°
2026-04-29 21:00 40.75492 28.91624 5603 ft 238 kts 63°
2026-04-29 21:00 40.76225 28.93589 5326 ft 235 kts 64°
2026-04-29 21:00 40.76937 28.95533 5062 ft 232 kts 64°
2026-04-29 21:01 40.77625 28.97431 4817 ft 229 kts 64°
2026-04-29 21:01 40.78298 28.99292 4606 ft 225 kts 64°
2026-04-29 21:01 40.78957 29.01119 4503 ft 215 kts 64°
2026-04-29 21:01 40.79589 29.02867 4358 ft 205 kts 64°
2026-04-29 21:02 40.80190 29.04528 4066 ft 200 kts 64°
2026-04-29 21:02 40.80783 29.06164 3791 ft 193 kts 64°
2026-04-29 21:02 40.81343 29.07703 3510 ft 191 kts 64°
2026-04-29 21:02 40.81920 29.09283 3309 ft 191 kts 64°
2026-04-29 21:03 40.82498 29.10868 3049 ft 189 kts 64°
2026-04-29 21:03 40.83071 29.12436 2989 ft 188 kts 65°
2026-04-29 21:03 40.83630 29.13962 2985 ft 188 kts 65°
2026-04-29 21:03 40.84210 29.15548 2944 ft 189 kts 64°
2026-04-29 21:04 40.84772 29.17079 2710 ft 182 kts 65°
2026-04-29 21:04 40.85316 29.18565 2420 ft 175 kts 65°
2026-04-29 21:04 40.85794 29.19867 2154 ft 162 kts 65°
2026-04-29 21:04 40.86271 29.21166 1903 ft 148 kts 65°
2026-04-29 21:05 40.86698 29.22327 1670 ft 136 kts 65°
2026-04-29 21:05 40.87111 29.23454 1474 ft 136 kts 64°
2026-04-29 21:05 40.87520 29.24570 1271 ft 136 kts 64°
2026-04-29 21:05 40.87930 29.25687 1060 ft 135 kts 64°
2026-04-29 21:06 40.88346 29.26809 838 ft 135 kts 63°
2026-04-29 21:06 40.88764 29.27932 610 ft 135 kts 63°
2026-04-29 21:06 40.89167 29.29053 435 ft 135 kts 62°
2026-04-29 21:06 40.89570 29.30160 327 ft 127 kts 63°
2026-04-29 21:07 40.89862 29.30932 321 ft 50 kts 61°
2026-04-29 21:07 40.89910 29.31057 321 ft 3 kts 60°
2026-04-29 21:07 40.89996 29.31206 321 ft 13 kts 45°
2026-04-29 21:07 40.90065 29.31284 321 ft 13 kts 38°
2026-04-29 21:08 40.90139 29.31354 321 ft 13 kts 33°
2026-04-29 21:08 40.90217 29.31423 321 ft 13 kts 35°
2026-04-29 21:08 40.90292 29.31493 321 ft 13 kts 15°
2026-04-29 21:08 40.90375 29.31457 321 ft 12 kts 338°
2026-04-29 21:09 40.90456 29.31467 321 ft 12 kts 50°
2026-04-29 21:09 40.90500 29.31572 321 ft 13 kts 62°
2026-04-29 21:09 40.90544 29.31683 321 ft 13 kts 61°
2026-04-29 21:09 40.90585 29.31797 321 ft 13 kts 66°
2026-04-29 21:10 40.90620 29.31900 321 ft 7 kts 64°
2026-04-29 21:10 40.90658 29.31938 321 ft 7 kts 350°
2026-04-29 21:10 40.90700 29.31915 321 ft 2 kts 335°